• In Hungary
  • List of Countries
  • For 7 days
  • Water Temperature
  • Satellite Maps
  • Weather Map
  • News
  • Weather Widgets
  • user-avatar
    Login

    Hourly Weather Santa Cruz del Quiché

    Today, 19 February, Monday

    Time Temperature Precipitation Wind Pressure Humidity
    00:00 +11°C° 0 mm 1 mps 599 mmHg 90%
    01:00 +11°C° 0 mm 1 mps 599 mmHg 90%
    02:00 +11°C° 0 mm 1 mps 598 mmHg 90%
    03:00 +11°C° 0 mm 1 mps 598 mmHg 91%
    04:00 +11°C° 0 mm 1 mps 598 mmHg 90%
    05:00 +10°C° 0 mm 1 mps 598 mmHg 90%
    06:00 +10°C° 0 mm 1 mps 598 mmHg 90%
    07:00 +13°C° 0 mm 1 mps 599 mmHg 80%
    08:00 +15°C° 0 mm 1 mps 601 mmHg 71%
    09:00 +19°C° 0 mm 1 mps 602 mmHg 62%
    10:00 +20°C° 0 mm 1 mps 603 mmHg 55%
    11:00 +21°C° 0 mm 2 mps 603 mmHg 49%
    12:00 +23°C° 0 mm 2 mps 603 mmHg 42%
    13:00 +21°C° 0.1 mm 2 mps 602 mmHg 45%
    14:00 +21°C° 0.1 mm 2 mps 602 mmHg 47%
    15:00 +20°C° 0.1 mm 2 mps 601 mmHg 50%
    16:00 +19°C° 0.3 mm 2 mps 600 mmHg 57%
    17:00 +18°C° 0.3 mm 1 mps 600 mmHg 63%
    18:00 +16°C° 0.3 mm 1 mps 599 mmHg 70%
    19:00 +15°C° 0.2 mm 1 mps 599 mmHg 74%
    20:00 +13°C° 0.2 mm 1 mps 599 mmHg 79%
    21:00 +12°C° 0.2 mm 1 mps 599 mmHg 83%
    22:00 +12°C° 0 mm 1 mps 599 mmHg 84%
    23:00 +11°C° 0 mm 1 mps 599 mmHg 84%

    Tomorrow, 20 February, Tuesday

    Time Temperature Precipitation Wind Pressure Humidity
    00:00 +11°C° 0 mm 1 mps 599 mmHg 84%
    01:00 +11°C° 0 mm 1 mps 598 mmHg 84%
    02:00 +11°C° 0 mm 1 mps 598 mmHg 84%
    03:00 +10°C° 0 mm 1 mps 598 mmHg 84%
    04:00 +10°C° 0 mm 1 mps 598 mmHg 84%
    05:00 +10°C° 0 mm 1 mps 598 mmHg 84%
    06:00 +10°C° 0 mm 1 mps 598 mmHg 84%
    07:00 +13°C° 0 mm 1 mps 599 mmHg 73%
    08:00 +15°C° 0 mm 0 mps 601 mmHg 63%
    09:00 +18°C° 0 mm 0 mps 603 mmHg 53%
    10:00 +21°C° 0 mm 1 mps 603 mmHg 49%
    11:00 +23°C° 0 mm 1 mps 603 mmHg 46%
    12:00 +24°C° 0 mm 1 mps 604 mmHg 42%
    13:00 +23°C° 0.1 mm 1 mps 603 mmHg 45%
    14:00 +23°C° 0.1 mm 1 mps 602 mmHg 49%
    15:00 +22°C° 0.1 mm 1 mps 601 mmHg 52%
    16:00 +20°C° 0.4 mm 1 mps 601 mmHg 59%
    17:00 +19°C° 0.4 mm 1 mps 600 mmHg 66%
    18:00 +16°C° 0.4 mm 1 mps 600 mmHg 73%
    19:00 +15°C° 0.3 mm 1 mps 600 mmHg 77%
    20:00 +14°C° 0.3 mm 1 mps 600 mmHg 81%
    21:00 +13°C° 0.3 mm 1 mps 600 mmHg 85%
    22:00 +12°C° 0 mm 1 mps 600 mmHg 86%
    23:00 +12°C° 0 mm 1 mps 600 mmHg 86%

    Day after tomorrow, 21 February, Wednesday

    Time Temperature Precipitation Wind Pressure Humidity
    00:00 +12°C° 0 mm 1 mps 600 mmHg 87%
    01:00 +12°C° 0 mm 1 mps 599 mmHg 87%
    02:00 +11°C° 0 mm 1 mps 599 mmHg 87%
    03:00 +11°C° 0 mm 1 mps 598 mmHg 88%
    04:00 +11°C° 0 mm 1 mps 599 mmHg 88%
    05:00 +11°C° 0 mm 1 mps 599 mmHg 88%
    06:00 +11°C° 0 mm 1 mps 599 mmHg 88%
    07:00 +14°C° 0 mm 1 mps 600 mmHg 78%
    08:00 +16°C° 0 mm 1 mps 602 mmHg 69%
    09:00 +20°C° 0 mm 1 mps 604 mmHg 59%
    10:00 +21°C° 0 mm 1 mps 604 mmHg 54%
    11:00 +21°C° 0 mm 2 mps 604 mmHg 49%
    12:00 +24°C° 0 mm 2 mps 604 mmHg 44%
    13:00 +23°C° 0.2 mm 2 mps 604 mmHg 46%
    14:00 +23°C° 0.2 mm 2 mps 603 mmHg 48%
    15:00 +23°C° 0.2 mm 2 mps 602 mmHg 50%
    16:00 +20°C° 0.3 mm 2 mps 602 mmHg 57%
    17:00 +18°C° 0.3 mm 2 mps 601 mmHg 65%
    18:00 +17°C° 0.3 mm 2 mps 601 mmHg 72%
    19:00 +15°C° 0 mm 1 mps 601 mmHg 78%
    20:00 +14°C° 0 mm 1 mps 601 mmHg 84%
    21:00 +13°C° 0 mm 1 mps 601 mmHg 90%
    22:00 +12°C° 0 mm 1 mps 601 mmHg 90%
    23:00 +12°C° 0 mm 1 mps 600 mmHg 90%

    22 February, Thursday

    Time Temperature Precipitation Wind Pressure Humidity
    00:00 +12°C° 0 mm 1 mps 600 mmHg 91%
    01:00 +12°C° 0 mm 1 mps 600 mmHg 91%
    02:00 +11°C° 0 mm 1 mps 599 mmHg 90%
    03:00 +11°C° 0 mm 1 mps 599 mmHg 90%
    04:00 +11°C° 0 mm 1 mps 599 mmHg 90%
    05:00 +11°C° 0 mm 1 mps 599 mmHg 89%
    06:00 +11°C° 0 mm 1 mps 599 mmHg 89%
    07:00 +13°C° 0 mm 1 mps 601 mmHg 80%
    08:00 +15°C° 0 mm 1 mps 602 mmHg 72%
    09:00 +19°C° 0 mm 1 mps 604 mmHg 63%
    10:00 +20°C° 0 mm 1 mps 604 mmHg 59%
    11:00 +20°C° 0 mm 2 mps 604 mmHg 56%
    12:00 +23°C° 0 mm 2 mps 604 mmHg 52%
    13:00 +21°C° 0.1 mm 3 mps 603 mmHg 52%
    14:00 +21°C° 0.1 mm 3 mps 603 mmHg 52%
    15:00 +21°C° 0.1 mm 3 mps 602 mmHg 52%
    16:00 +19°C° 0.1 mm 2 mps 601 mmHg 60%
    17:00 +18°C° 0.1 mm 2 mps 601 mmHg 67%
    18:00 +16°C° 0.1 mm 2 mps 601 mmHg 75%
    19:00 +15°C° 0.1 mm 1 mps 601 mmHg 80%
    20:00 +14°C° 0.1 mm 1 mps 601 mmHg 85%
    21:00 +13°C° 0.1 mm 1 mps 601 mmHg 90%
    22:00 +13°C° 0 mm 1 mps 601 mmHg 90%
    23:00 +12°C° 0 mm 1 mps 600 mmHg 90%

    23 February, Friday

    Time Temperature Precipitation Wind Pressure Humidity
    00:00 +12°C° 0 mm 1 mps 600 mmHg 90%
    01:00 +12°C° 0 mm 1 mps 600 mmHg 90%
    02:00 +12°C° 0 mm 1 mps 600 mmHg 91%
    03:00 +11°C° 0 mm 1 mps 599 mmHg 91%
    04:00 +11°C° 0 mm 1 mps 599 mmHg 90%
    05:00 +11°C° 0 mm 1 mps 599 mmHg 89%
    06:00 +10°C° 0 mm 1 mps 599 mmHg 89%
    07:00 +13°C° 0 mm 1 mps 601 mmHg 80%
    08:00 +15°C° 0 mm 1 mps 602 mmHg 71%
    09:00 +19°C° 0 mm 1 mps 603 mmHg 63%
    10:00 +20°C° 0.1 mm 1 mps 603 mmHg 59%
    11:00 +20°C° 0.1 mm 2 mps 603 mmHg 56%
    12:00 +21°C° 0.1 mm 2 mps 603 mmHg 53%
    13:00 +21°C° 0.5 mm 2 mps 603 mmHg 54%
    14:00 +21°C° 0.5 mm 2 mps 602 mmHg 55%
    15:00 +21°C° 0.5 mm 2 mps 601 mmHg 55%
    16:00 +19°C° 0.4 mm 2 mps 601 mmHg 62%
    17:00 +18°C° 0.4 mm 2 mps 600 mmHg 68%
    18:00 +16°C° 0.4 mm 1 mps 600 mmHg 74%
    19:00 +15°C° 0.1 mm 1 mps 600 mmHg 79%
    20:00 +14°C° 0.1 mm 1 mps 600 mmHg 84%
    21:00 +13°C° 0.1 mm 1 mps 600 mmHg 89%
    22:00 +12°C° 0 mm 1 mps 600 mmHg 89%
    23:00 +12°C° 0 mm 1 mps 599 mmHg 90%

    24 February, Saturday

    Time Temperature Precipitation Wind Pressure Humidity
    00:00 +12°C° 0 mm 1 mps 599 mmHg 90%
    01:00 +12°C° 0 mm 1 mps 599 mmHg 89%
    02:00 +11°C° 0 mm 1 mps 598 mmHg 89%
    03:00 +11°C° 0 mm 1 mps 598 mmHg 88%
    04:00 +11°C° 0 mm 1 mps 598 mmHg 88%
    05:00 +11°C° 0 mm 1 mps 598 mmHg 87%
    06:00 +10°C° 0 mm 1 mps 598 mmHg 86%
    07:00 +13°C° 0 mm 1 mps 600 mmHg 76%
    08:00 +15°C° 0 mm 0 mps 601 mmHg 66%
    09:00 +18°C° 0 mm 0 mps 603 mmHg 56%
    10:00 +20°C° 0 mm 0 mps 603 mmHg 51%
    11:00 +23°C° 0 mm 1 mps 603 mmHg 46%
    12:00 +25°C° 0 mm 1 mps 604 mmHg 41%
    13:00 +24°C° 0.6 mm 1 mps 603 mmHg 46%
    14:00 +23°C° 0.6 mm 1 mps 602 mmHg 51%
    15:00 +22°C° 0.6 mm 1 mps 601 mmHg 56%
    16:00 +20°C° 1.1 mm 1 mps 600 mmHg 63%
    17:00 +19°C° 1.1 mm 1 mps 600 mmHg 69%
    18:00 +16°C° 1.1 mm 1 mps 599 mmHg 76%
    19:00 +15°C° 0.7 mm 1 mps 599 mmHg 79%
    20:00 +14°C° 0.7 mm 1 mps 599 mmHg 82%
    21:00 +13°C° 0.7 mm 1 mps 599 mmHg 84%
    22:00 +13°C° 0.3 mm 1 mps 599 mmHg 84%
    23:00 +12°C° 0.3 mm 1 mps 599 mmHg 84%
    Show more